{"data":{"norad_id":59614,"intl_designator":"2024-080P","name":"STARLINK-31762","alt_names":[],"object_type":"PAYLOAD","status":"ACTIVE","operator":null,"country":"US","launch_date":"2024-04-28","launch_site_code":"AFETR","launch_vehicle":null,"mission":null,"orbit_class":"UNKNOWN","rcs_meters":null,"size_class":null,"mass_kg":null,"dimensions":null,"purposes":["comms"],"wikipedia_slug":null,"has_3d_model":false,"image_url":null,"decayed_at":null,"tle_current":{"epoch":"2026-05-24T22:43:18.187392Z","epoch_age_seconds":82749,"freshness":"FRESH","line1":"1 59614U 24080P   26144.94673828  .00003681  00000+0  14318-3 0  9990","line2":"2 59614  43.0022 327.3817 0001290 270.7537  89.3167 15.27585174116199","mean_motion":15.27585174,"eccentricity":0.000129,"inclination_deg":43.0022,"raan_deg":327.3817,"arg_perigee_deg":270.7537,"mean_anomaly_deg":89.3167,"bstar":0.00014318,"rev_number":11619,"period_min":94.266429427915,"perigee_km":482.14851225822,"apogee_km":483.91869427387,"semimajor_km":6861.170603266,"source":"CELESTRAK","updated_at":"2026-05-25T13:38:19.010433Z"}}}